Terminal Aerodrome Forecast
Issued by NWS

Home | Current Version | Previous Version | Graphics & Text | Print | Product List | Glossary On
Versions: 1 2 3 4 5 6 7 8 9 10 11 12 13 14
000
FTUS43 KOAX 251120
TAFCDR
TAF
KCDR 251120Z 2512/2612 29013KT P6SM SCT100
     FM251600 31010G22KT P6SM SCT100
     FM260200 28013KT P6SM SCT100=

USA.gov is the U.S. government's official web portal to all federal, state and local government web resources and services.